When you browse on this site, cookies collect data to enhance your experience and personalize the content and advertising you see.
Visit our Privacy Policy to learn more. By continuing to use the site, you agree to this use of cookies and data.

Hourly Weather Metz

Today, 3 August, Monday

Time Temperature Precipitation Wind Pressure Humidity
00:00 +17°C° 0 mm 2 mps 746 mmHg 80%
01:00 +17°C° 0 mm 2 mps 746 mmHg 83%
02:00 +16°C° 0 mm 2 mps 746 mmHg 85%
03:00 +15°C° 0 mm 1 mps 745 mmHg 88%
04:00 +16°C° 0 mm 1 mps 745 mmHg 85%
05:00 +16°C° 0 mm 1 mps 745 mmHg 82%
06:00 +18°C° 0 mm 1 mps 745 mmHg 80%
07:00 +18°C° 0.1 mm 2 mps 745 mmHg 74%
08:00 +19°C° 0.1 mm 3 mps 745 mmHg 69%
09:00 +21°C° 0.1 mm 3 mps 745 mmHg 64%
10:00 +21°C° 0.5 mm 4 mps 745 mmHg 65%
11:00 +21°C° 0.5 mm 4 mps 744 mmHg 65%
12:00 +21°C° 0.5 mm 4 mps 744 mmHg 66%
13:00 +20°C° 0.7 mm 4 mps 744 mmHg 67%
14:00 +20°C° 0.7 mm 4 mps 744 mmHg 68%
15:00 +20°C° 0.7 mm 3 mps 744 mmHg 70%
16:00 +19°C° 0.4 mm 3 mps 744 mmHg 72%
17:00 +19°C° 0.4 mm 2 mps 744 mmHg 74%
18:00 +20°C° 0.4 mm 1 mps 743 mmHg 77%
19:00 +18°C° 0.1 mm 1 mps 744 mmHg 78%
20:00 +15°C° 0.1 mm 0 mps 744 mmHg 80%
21:00 +14°C° 0.1 mm 0 mps 744 mmHg 82%
22:00 +14°C° 0.1 mm 0 mps 745 mmHg 82%
23:00 +15°C° 0.1 mm 1 mps 745 mmHg 82%

Tomorrow, 4 August, Tuesday

Time Temperature Precipitation Wind Pressure Humidity
00:00 +15°C° 0.1 mm 1 mps 745 mmHg 82%
01:00 +15°C° 0 mm 1 mps 745 mmHg 83%
02:00 +14°C° 0 mm 1 mps 745 mmHg 84%
03:00 +14°C° 0 mm 1 mps 745 mmHg 85%
04:00 +14°C° 0 mm 1 mps 746 mmHg 84%
05:00 +14°C° 0 mm 2 mps 746 mmHg 83%
06:00 +15°C° 0 mm 2 mps 746 mmHg 83%
07:00 +17°C° 0 mm 2 mps 746 mmHg 75%
08:00 +19°C° 0 mm 2 mps 747 mmHg 67%
09:00 +21°C° 0 mm 2 mps 747 mmHg 59%
10:00 +23°C° 0.1 mm 2 mps 747 mmHg 54%
11:00 +24°C° 0.1 mm 2 mps 747 mmHg 48%
12:00 +25°C° 0.1 mm 2 mps 747 mmHg 43%
13:00 +25°C° 0 mm 2 mps 747 mmHg 44%
14:00 +25°C° 0 mm 2 mps 747 mmHg 46%
15:00 +25°C° 0 mm 2 mps 747 mmHg 47%
16:00 +24°C° 0 mm 2 mps 747 mmHg 51%
17:00 +23°C° 0 mm 1 mps 747 mmHg 55%
18:00 +23°C° 0 mm 1 mps 747 mmHg 59%
19:00 +21°C° 0 mm 1 mps 747 mmHg 62%
20:00 +20°C° 0 mm 1 mps 748 mmHg 65%
21:00 +19°C° 0 mm 1 mps 748 mmHg 68%
22:00 +16°C° 0 mm 0 mps 748 mmHg 71%
23:00 +15°C° 0 mm 0 mps 748 mmHg 74%

Day after tomorrow, 5 August, Wednesday

Time Temperature Precipitation Wind Pressure Humidity
00:00 +15°C° 0 mm 0 mps 748 mmHg 77%
01:00 +14°C° 0 mm 0 mps 748 mmHg 78%
02:00 +14°C° 0 mm 0 mps 748 mmHg 80%
03:00 +13°C° 0 mm 0 mps 748 mmHg 82%
04:00 +14°C° 0 mm 0 mps 748 mmHg 79%
05:00 +15°C° 0 mm 0 mps 748 mmHg 76%
06:00 +18°C° 0 mm 1 mps 748 mmHg 74%
07:00 +20°C° 0 mm 1 mps 748 mmHg 66%
08:00 +21°C° 0 mm 2 mps 749 mmHg 59%
09:00 +24°C° 0 mm 2 mps 749 mmHg 52%
10:00 +25°C° 0 mm 2 mps 749 mmHg 48%
11:00 +26°C° 0 mm 2 mps 749 mmHg 44%
12:00 +27°C° 0 mm 2 mps 748 mmHg 40%
13:00 +27°C° 0 mm 2 mps 748 mmHg 39%
14:00 +28°C° 0 mm 3 mps 748 mmHg 38%
15:00 +28°C° 0 mm 3 mps 748 mmHg 38%
16:00 +27°C° 0 mm 3 mps 748 mmHg 43%
17:00 +26°C° 0 mm 3 mps 748 mmHg 48%
18:00 +25°C° 0 mm 3 mps 748 mmHg 54%
19:00 +22°C° 0 mm 3 mps 748 mmHg 57%
20:00 +20°C° 0 mm 2 mps 749 mmHg 60%
21:00 +19°C° 0 mm 2 mps 749 mmHg 63%
22:00 +18°C° 0 mm 2 mps 749 mmHg 66%
23:00 +17°C° 0 mm 2 mps 749 mmHg 70%

6 August, Thursday

Time Temperature Precipitation Wind Pressure Humidity
00:00 +17°C° 0 mm 2 mps 749 mmHg 73%
01:00 +16°C° 0 mm 2 mps 749 mmHg 75%
02:00 +16°C° 0 mm 2 mps 749 mmHg 77%
03:00 +16°C° 0 mm 2 mps 749 mmHg 79%
04:00 +16°C° 0 mm 2 mps 749 mmHg 76%
05:00 +17°C° 0 mm 3 mps 749 mmHg 73%
06:00 +18°C° 0 mm 3 mps 749 mmHg 70%
07:00 +20°C° 0 mm 4 mps 750 mmHg 63%
08:00 +22°C° 0 mm 4 mps 750 mmHg 56%
09:00 +26°C° 0 mm 5 mps 750 mmHg 49%
10:00 +27°C° 0 mm 5 mps 750 mmHg 47%
11:00 +28°C° 0 mm 5 mps 749 mmHg 44%
12:00 +29°C° 0 mm 5 mps 749 mmHg 41%
13:00 +29°C° 0 mm 5 mps 749 mmHg 40%
14:00 +29°C° 0 mm 5 mps 749 mmHg 40%
15:00 +30°C° 0 mm 5 mps 749 mmHg 40%
16:00 +29°C° 0 mm 4 mps 749 mmHg 45%
17:00 +28°C° 0 mm 4 mps 749 mmHg 50%
18:00 +26°C° 0 mm 3 mps 749 mmHg 54%
19:00 +25°C° 0 mm 3 mps 749 mmHg 59%
20:00 +22°C° 0 mm 3 mps 749 mmHg 64%
21:00 +21°C° 0 mm 2 mps 749 mmHg 69%
22:00 +20°C° 0 mm 2 mps 749 mmHg 72%
23:00 +20°C° 0 mm 2 mps 749 mmHg 74%

7 August, Friday

Time Temperature Precipitation Wind Pressure Humidity
00:00 +19°C° 0 mm 2 mps 749 mmHg 77%
01:00 +19°C° 0 mm 2 mps 749 mmHg 78%
02:00 +18°C° 0 mm 2 mps 749 mmHg 79%
03:00 +18°C° 0 mm 2 mps 748 mmHg 80%
04:00 +19°C° 0 mm 2 mps 749 mmHg 80%
05:00 +19°C° 0 mm 3 mps 749 mmHg 80%
06:00 +20°C° 0 mm 3 mps 749 mmHg 80%
07:00 +22°C° 0 mm 3 mps 749 mmHg 74%
08:00 +25°C° 0 mm 3 mps 749 mmHg 67%
09:00 +27°C° 0 mm 3 mps 749 mmHg 60%
10:00 +29°C° 0 mm 3 mps 749 mmHg 55%
11:00 +30°C° 0 mm 3 mps 749 mmHg 50%
12:00 +31°C° 0 mm 3 mps 748 mmHg 45%
13:00 +33°C° 0 mm 3 mps 748 mmHg 44%
14:00 +32°C° 0 mm 2 mps 748 mmHg 42%
15:00 +32°C° 0 mm 2 mps 748 mmHg 41%
16:00 +31°C° 0 mm 2 mps 747 mmHg 45%
17:00 +30°C° 0 mm 2 mps 747 mmHg 50%
18:00 +29°C° 0 mm 2 mps 747 mmHg 55%
19:00 +28°C° 0 mm 1 mps 747 mmHg 59%
20:00 +26°C° 0 mm 1 mps 747 mmHg 64%
21:00 +24°C° 0 mm 1 mps 748 mmHg 69%
22:00 +23°C° 0 mm 1 mps 748 mmHg 72%
23:00 +23°C° 0 mm 1 mps 748 mmHg 75%

8 August, Saturday

Time Temperature Precipitation Wind Pressure Humidity
00:00 +22°C° 0 mm 1 mps 747 mmHg 79%
01:00 +22°C° 0 mm 1 mps 747 mmHg 80%
02:00 +21°C° 0 mm 1 mps 747 mmHg 82%
03:00 +21°C° 0 mm 1 mps 747 mmHg 84%
04:00 +22°C° 0 mm 1 mps 747 mmHg 82%
05:00 +22°C° 0 mm 1 mps 747 mmHg 79%
06:00 +23°C° 0 mm 1 mps 748 mmHg 77%
07:00 +25°C° 0 mm 1 mps 748 mmHg 69%
08:00 +27°C° 0 mm 1 mps 748 mmHg 62%
09:00 +29°C° 0 mm 1 mps 748 mmHg 54%
10:00 +31°C° 0 mm 1 mps 748 mmHg 49%
11:00 +32°C° 0 mm 1 mps 747 mmHg 44%
12:00 +33°C° 0 mm 1 mps 747 mmHg 39%
13:00 +34°C° 0 mm 2 mps 747 mmHg 37%
14:00 +35°C° 0 mm 2 mps 747 mmHg 36%
15:00 +35°C° 0 mm 2 mps 746 mmHg 34%
16:00 +34°C° 0 mm 2 mps 746 mmHg 39%
17:00 +32°C° 0 mm 2 mps 746 mmHg 44%
18:00 +31°C° 0 mm 2 mps 746 mmHg 48%
19:00 +29°C° 0 mm 1 mps 746 mmHg 53%
20:00 +27°C° 0 mm 1 mps 747 mmHg 57%
21:00 +26°C° 0 mm 1 mps 747 mmHg 61%
22:00 +25°C° 0 mm 1 mps 747 mmHg 64%
23:00 +24°C° 0 mm 1 mps 747 mmHg 66%
Show more